Location: Cahas Mountain Overlook
(37.0833°N, 80.1000°W)
Time: 20:03:07
(UTC-04:00)

SR - Pass Details

Date: 12 February 2026
Orbit: 572 x 849 km, 66.7° (Epoch: 13 March)

Event Time Altitude Azimuth Distance (km) Brightness Sun altitude
Rises 04:50:57 0° 169° (S) 2,762 - -28.7°
Exits shadow 04:51:18 - 168° (SSE) 2,634 ? -28.7°
Reaches altitude 10° 04:53:43 10° 150° (SSE) 1,865 ? -28.2°
Maximum altitude 04:56:31 18° 107° (ESE) 1,443 ? -27.6°
Drops below altitude 10° 04:59:22 10° 64° (ENE) 1,898 ? -27.1°
Sets 05:02:12 0° 46° (NE) 2,831 ? -26.5°
